timestamp,surface_pressure_avg,surface_temp_avg,battery_voltage,lat,long
2023-09-22 00:09:00+00:00,239.0214,17.7,11.77,47.84626,-54.09684
2023-09-22 00:19:00+00:00,238.6598,17.7,11.77,47.84626,-54.09684
2023-09-22 00:29:00+00:00,241.3914,17.7,11.77,47.84626,-54.09684
2023-09-22 00:39:00+00:00,244.1481,17.55,11.77,47.84626,-54.09684
2023-09-22 00:49:00+00:00,246.8614,17.57,11.77,47.84626,-54.09684
2023-09-22 00:59:00+00:00,249.7448,17.6,11.77,47.84626,-54.09684
2023-09-22 01:09:00+00:00,255.0748,17.7,11.77,47.84626,-54.09684
2023-09-22 01:19:00+00:00,259.453,17.7,11.77,47.84626,-54.09684
2023-09-22 01:29:00+00:00,263.9881,17.69,11.77,47.84626,-54.09684
2023-09-22 01:39:00+00:00,269.5214,17.5,11.77,47.84626,-54.09684
2023-09-22 01:49:00+00:00,275.553,17.33,11.77,47.84626,-54.09684
2023-09-22 01:59:00+00:00,280.3248,17.6,11.77,47.84626,-54.09684
2023-09-22 02:09:00+00:00,285.0663,17.6,11.77,47.84626,-54.09684
2023-09-22 02:19:00+00:00,289.3748,17.4,11.7,47.84626,-54.09684
2023-09-22 02:29:00+00:00,293.5347,17.3,11.7,47.84626,-54.09684
2023-09-22 02:39:00+00:00,295.9096,17.3,11.7,47.84626,-54.09684
2023-09-22 02:49:00+00:00,297.3781,17.26,11.7,47.84626,-54.09684
2023-09-22 02:59:00+00:00,298.1081,17.29,11.7,47.84626,-54.09684
2023-09-22 03:09:00+00:00,300.7931,17.3,11.7,47.84626,-54.09684
2023-09-22 03:19:00+00:00,301.6063,17.3,11.7,47.84626,-54.09684
2023-09-22 03:29:00+00:00,300.9614,17.3,11.7,47.84626,-54.09684
2023-09-22 03:39:00+00:00,302.193,17.33,11.7,47.84626,-54.09684
2023-09-22 03:49:00+00:00,304.6096,17.3,11.7,47.84626,-54.09684
2023-09-22 03:59:00+00:00,305.413,17.3,11.7,47.84626,-54.09684
2023-09-22 04:09:00+00:00,305.8614,17.3,11.7,47.84626,-54.09684
2023-09-22 04:19:00+00:00,308.6514,17.3,11.7,47.84626,-54.09684
2023-09-22 04:29:00+00:00,309.7563,17.31,11.7,47.84626,-54.09684
2023-09-22 04:39:00+00:00,309.3097,17.2,11.7,47.84626,-54.09684
2023-09-22 04:49:00+00:00,308.8964,17.15,11.7,47.84626,-54.09684
2023-09-22 04:59:00+00:00,308.318,17.18,11.7,47.84626,-54.09684
2023-09-22 05:09:00+00:00,307.043,17.1,11.7,47.84626,-54.09684
2023-09-22 05:19:00+00:00,305.2814,17.1,11.7,47.84626,-54.09684
2023-09-22 05:29:00+00:00,302.7313,17.1,11.7,47.84626,-54.09684
2023-09-22 05:39:00+00:00,300.233,17.1,11.7,47.84626,-54.09684
2023-09-22 05:49:00+00:00,297.6031,17.1,11.7,47.84626,-54.09684
2023-09-22 05:59:00+00:00,295.2014,17.1,11.7,47.84626,-54.09684
2023-09-22 06:09:00+00:00,288.9948,17.1,11.7,47.84626,-54.09684
2023-09-22 06:19:00+00:00,284.4414,17.0,11.7,47.84626,-54.09684
2023-09-22 06:29:00+00:00,279.6947,17.15,11.7,47.84626,-54.09684
2023-09-22 06:39:00+00:00,274.2231,17.3,11.7,47.84626,-54.09684
2023-09-22 06:49:00+00:00,268.2914,17.0,11.7,47.84626,-54.09684
2023-09-22 06:59:00+00:00,265.0447,17.0,11.7,47.84626,-54.09684
2023-09-22 07:09:00+00:00,260.3547,17.1,11.7,47.84626,-54.09684
2023-09-22 07:19:01+00:00,254.3564,17.19,11.7,47.84626,-54.09684
2023-09-22 07:29:01+00:00,248.7231,17.1,11.7,47.84626,-54.09684
2023-09-22 07:39:01+00:00,243.5348,17.07,11.7,47.84626,-54.09684
2023-09-22 07:49:01+00:00,238.0031,16.9,11.7,47.84626,-54.09684
2023-09-22 07:59:01+00:00,232.2414,16.98,11.7,47.84626,-54.09684
2023-09-22 08:09:01+00:00,227.3881,17.0,11.7,47.84626,-54.09684
2023-09-22 08:19:00+00:00,224.7081,17.0,11.7,47.84626,-54.09684
2023-09-22 08:29:00+00:00,222.9048,17.09,11.7,47.84626,-54.09684
2023-09-22 08:39:00+00:00,218.6565,17.1,11.7,47.84626,-54.09684
2023-09-22 08:49:00+00:00,211.4281,17.08,11.7,47.84626,-54.09684
2023-09-22 08:59:00+00:00,207.0848,17.0,11.7,47.84626,-54.09684
2023-09-22 09:09:00+00:00,207.3231,16.9,11.7,47.84626,-54.09684
2023-09-22 09:19:00+00:00,204.2931,16.9,11.7,47.84626,-54.09684
2023-09-22 09:29:00+00:00,201.4365,16.87,11.7,47.84626,-54.09684
2023-09-22 09:39:00+00:00,202.6664,16.8,11.7,47.84626,-54.09684
2023-09-22 09:49:00+00:00,203.5448,16.79,11.7,47.84626,-54.09684
2023-09-22 09:59:00+00:00,202.8481,16.7,11.7,47.84626,-54.09684
2023-09-22 10:09:00+00:00,206.1581,16.7,11.7,47.84626,-54.09684
2023-09-22 10:19:00+00:00,212.5898,16.6,11.7,47.84626,-54.09684
2023-09-22 10:29:00+00:00,214.5965,16.6,11.7,47.84626,-54.09684
2023-09-22 10:39:00+00:00,215.8564,16.6,11.7,47.84626,-54.09684
2023-09-22 10:49:00+00:00,221.6548,16.57,11.7,47.84626,-54.09684
2023-09-22 10:59:00+00:00,228.5064,16.55,11.7,47.84626,-54.09684
2023-09-22 11:09:00+00:00,231.7881,16.5,11.7,47.84626,-54.09684
2023-09-22 11:19:00+00:00,235.3814,16.5,11.77,47.84626,-54.09684
2023-09-22 11:29:00+00:00,238.1781,16.5,11.77,47.84626,-54.09684
2023-09-22 11:39:00+00:00,241.2014,16.5,11.77,47.84626,-54.09684
2023-09-22 11:49:00+00:00,245.0547,16.5,11.77,47.84626,-54.09684
2023-09-22 11:59:00+00:00,249.6298,16.48,11.77,47.84626,-54.09684
2023-09-22 12:09:00+00:00,252.9114,16.44,11.77,47.84626,-54.09684
2023-09-22 12:19:00+00:00,255.7731,16.4,11.77,47.84626,-54.09684
2023-09-22 12:29:00+00:00,258.8848,16.4,11.77,47.84626,-54.09684
2023-09-22 12:39:00+00:00,262.4481,16.39,11.77,47.84626,-54.09684
2023-09-22 12:49:00+00:00,265.3714,16.37,11.77,47.84626,-54.09684
2023-09-22 12:59:00+00:00,269.1647,16.3,11.77,47.84626,-54.09684
2023-09-22 13:09:00+00:00,273.2513,16.3,11.77,47.84626,-54.09684
2023-09-22 13:19:00+00:00,277.7847,16.3,12.09,47.84626,-54.09684
2023-09-22 13:29:00+00:00,282.0964,16.3,12.09,47.84626,-54.09684
2023-09-22 13:39:00+00:00,287.108,16.3,12.09,47.84626,-54.09684
2023-09-22 13:49:00+00:00,293.3147,16.3,12.09,47.84626,-54.09684
2023-09-22 13:59:00+00:00,299.878,16.3,12.09,47.84626,-54.09684
2023-09-22 14:09:00+00:00,303.5114,16.3,12.09,47.84626,-54.09684
2023-09-22 14:19:00+00:00,307.468,16.3,12.25,47.84626,-54.09684
2023-09-22 14:29:00+00:00,313.9413,16.29,12.25,47.84626,-54.09684
2023-09-22 14:39:00+00:00,319.6363,16.29,12.25,47.84626,-54.09684
2023-09-22 14:49:00+00:00,322.5296,16.3,12.25,47.84626,-54.09684
2023-09-22 14:59:00+00:00,323.2813,16.3,12.25,47.84626,-54.09684
2023-09-22 15:09:00+00:00,323.963,16.3,12.25,47.84626,-54.09684
2023-09-22 15:19:00+00:00,325.2162,16.3,12.25,47.84626,-54.09684
2023-09-22 15:29:00+00:00,326.808,16.3,12.25,47.84626,-54.09684
2023-09-22 15:39:00+00:00,327.7563,16.3,12.25,47.84626,-54.09684
2023-09-22 15:49:00+00:00,328.4980000000001,16.3,12.25,47.84626,-54.09684
2023-09-22 15:59:00+00:00,329.8763,16.3,12.25,47.84626,-54.09684
2023-09-22 16:09:00+00:00,331.9246,16.3,12.25,47.84626,-54.09684
2023-09-22 16:19:00+00:00,331.1697,16.3,12.25,47.84626,-54.09684
2023-09-22 16:29:00+00:00,330.898,16.02,12.25,47.84626,-54.09684
2023-09-22 16:39:00+00:00,334.0847,15.9,12.25,47.84626,-54.09684
2023-09-22 16:49:00+00:00,334.3730000000001,15.8,12.25,47.84626,-54.09684
2023-09-22 16:59:00+00:00,331.648,15.86,12.25,47.84626,-54.09684
2023-09-22 17:09:00+00:00,331.8297,15.9,12.25,47.84626,-54.09684
2023-09-22 17:19:00+00:00,332.9813,15.9,12.17,47.84626,-54.09684
2023-09-22 17:29:00+00:00,328.3613,15.9,12.17,47.84626,-54.09684
2023-09-22 17:39:00+00:00,325.4446,15.99,12.17,47.84626,-54.09684
2023-09-22 17:49:00+00:00,325.9997,16.03,12.17,47.84626,-54.09684
2023-09-22 17:59:00+00:00,323.0996,16.1,12.17,47.84626,-54.09684
2023-09-22 18:09:00+00:00,315.8647,16.1,12.17,47.84626,-54.09684
2023-09-22 18:19:00+00:00,312.52299999999997,16.13,12.09,47.84626,-54.09684
2023-09-22 18:29:00+00:00,312.4847,16.2,12.09,47.84626,-54.09684
2023-09-22 18:39:00+00:00,306.7447,16.2,12.09,47.84626,-54.09684
2023-09-22 18:49:00+00:00,298.183,16.2,12.09,47.84626,-54.09684
2023-09-22 18:59:00+00:00,293.6979,16.2,12.09,47.84626,-54.09684
2023-09-22 19:09:00+00:00,291.908,16.2,12.09,47.84626,-54.09684
2023-09-22 19:19:01+00:00,284.738,16.2,11.93,47.84626,-54.09684
2023-09-22 19:29:01+00:00,276.4147,14.8,11.93,47.84626,-54.09684
2023-09-22 19:39:01+00:00,271.9281,15.68,11.93,47.84626,-54.09684
2023-09-22 19:49:01+00:00,268.0314,15.3,11.93,47.84626,-54.09684
2023-09-22 19:59:01+00:00,260.0847,15.1,11.93,47.84626,-54.09684
2023-09-22 20:09:01+00:00,252.9414,14.9,11.93,47.84626,-54.09684
2023-09-22 20:19:00+00:00,247.5898,14.8,11.93,47.84626,-54.09684
2023-09-22 20:29:00+00:00,240.7081,15.06,11.93,47.84626,-54.09684
2023-09-22 20:39:00+00:00,232.7131,14.87,11.93,47.84626,-54.09684
2023-09-22 20:49:00+00:00,228.6314,14.44,11.93,47.84626,-54.09684
2023-09-22 20:59:00+00:00,225.9231,14.48,11.93,47.84626,-54.09684
2023-09-22 21:09:00+00:00,222.0797,14.49,11.93,47.84626,-54.09684
2023-09-22 21:19:00+00:00,219.2914,14.5,11.86,47.84626,-54.09684
2023-09-22 21:29:00+00:00,217.2814,14.4,11.86,47.84626,-54.09684
2023-09-22 21:39:00+00:00,216.2164,14.3,11.86,47.84626,-54.09684
2023-09-22 21:49:00+00:00,215.9265,14.2,11.86,47.84626,-54.09684
2023-09-22 21:59:00+00:00,214.7264,14.0,11.86,47.84626,-54.09684
2023-09-22 22:09:00+00:00,212.1914,13.8,11.86,47.84626,-54.09684
2023-09-22 22:19:01+00:00,213.0747,13.7,11.86,47.84626,-54.09684
2023-09-22 22:29:01+00:00,214.8715,13.66,11.86,47.84626,-54.09684
2023-09-22 22:39:01+00:00,215.1264,13.7,11.86,47.84626,-54.09684
2023-09-22 22:49:01+00:00,216.4848,13.78,11.86,47.84626,-54.09684
2023-09-22 22:59:01+00:00,220.3931,13.8,11.86,47.84626,-54.09684
2023-09-22 23:09:01+00:00,220.9198,13.8,11.86,47.84626,-54.09684
2023-09-22 23:19:00+00:00,217.5115,13.9,11.86,47.84626,-54.09684
2023-09-22 23:29:00+00:00,215.9948,14.01,11.86,47.84626,-54.09684
2023-09-22 23:39:00+00:00,216.6331,14.09,11.86,47.84626,-54.09684
2023-09-22 23:49:00+00:00,216.713,14.1,11.86,47.84626,-54.09684
2023-09-22 23:59:00+00:00,216.0881,14.1,11.86,47.84626,-54.09684
